#timestamp,LO_Frequency,Hit,StdDev 
1513843215.6,286046997.0,N
1513843235.5,286046995.7,N
1513843255.3,286046997.6,N
1513843275.2,286046999.6,N
1513843295.9,286046999.0,N
1513843315.7,286047000.8,N
1513843335.6,286046996.7,N
1513843355.4,286046995.0,Y
1513843375.3,286046999.1,P
1513843395.1,286047000.6,N
1513843396.0,286047000.6,N
1513843415.8,286047002.6,N
1513843435.7,286047001.5,N
1513843455.5,286047001.8,N
1513843475.3,286047001.7,N
1513843495.2,286047000.8,N
1513843515.0,286046999.1,N
1513843515.9,286046999.1,N
1513843535.8,286046999.6,N
1513843555.6,286047001.1,N
1513843575.4,286046998.3,N
1513843595.3,286046997.1,N
1513843615.1,286046997.8,N
1513843635.8,286046998.2,N
1513843655.7,286046996.5,N
1513843675.5,286046996.5,N
1513843695.4,286047000.7,N
1513843715.2,286047000.7,N
1513843735.0,286046998.6,N
1513843735.9,286046998.6,N
1513843755.8,286046998.2,N
1513843775.6,286046996.5,N
1513843795.5,286047001.0,N
1513843815.3,286046997.1,N
1513843835.1,286046997.9,N
1513843855.9,286046999.6,N
1513843875.7,286046995.2,N
1513843895.5,286046995.9,N
1513843915.4,286046999.5,N
1513843935.2,286046996.5,N
1513843955.1,286046999.8,N
1513843956.0,286046999.8,N
1513843975.8,286047001.7,N
1513843995.6,286047002.7,N
1513844015.5,286047007.5,Y
1513844035.3,286047006.9,P
1513844055.2,286047005.1,N
1513844075.9,286047003.3,N
1513844095.7,286047004.1,N
1513844115.6,286047002.6,N
1513844135.4,286047000.0,N
1513844155.2,286047002.4,N
1513844175.1,286047001.3,N
1513844176.0,286047001.3,N
1513844195.8,286047003.2,N
1513844215.7,286047004.0,N
1513844235.5,286047003.0,N
1513844255.3,286047005.7,N
1513844275.2,286047003.5,N
1513844295.0,286047002.0,N
1513844295.9,286047002.0,N
1513844315.7,286047002.7,N
1513844335.6,286047000.8,N
1513844355.4,286047001.1,N
1513844375.3,286047003.9,N
1513844395.1,286047004.2,N
1513844415.8,286047007.0,Y
1513844435.7,286047000.5,P
1513844455.5,286046996.9,N
1513844475.4,286046997.5,N
1513844495.2,286046997.8,N
1513844515.0,286046995.3,N
1513844515.9,286046995.3,N
1513844535.8,286046999.4,N
1513844555.6,286046996.9,N
1513844575.4,286046997.2,N
1513844595.3,286047001.2,N
1513844615.1,286046996.5,N
1513844635.9,286046995.5,N
1513844655.7,286046996.4,N
1513844675.5,286046995.7,N
1513844695.4,286046996.8,N
1513844715.2,286046999.3,N
1513844735.1,286046997.3,N
1513844736.0,286046997.3,N
1513844755.8,286046998.0,N
1513844775.6,286046997.9,N
1513844795.5,286046995.0,N
1513844815.3,286046997.1,N
1513844835.1,286046997.3,N
1513844855.9,286046996.9,N
1513844875.7,286046999.0,N
1513844895.6,286046999.4,N
1513844915.4,286046999.5,N
1513844935.2,286046998.7,N
1513844955.1,286046998.6,N
1513844956.0,286046998.6,N
1513844975.8,286047000.6,N
1513844995.6,286047002.7,N
1513845015.5,286046999.8,N
1513845035.3,286046999.8,N
1513845055.2,286047002.4,N
1513845075.9,286047001.7,N
1513845095.7,286047002.2,N
1513845115.6,286047003.1,N
1513845135.4,286047003.2,N
1513845155.3,286047003.7,N
1513845175.1,286047003.7,N
1513845176.0,286047003.7,N
1513845195.8,286047004.3,N
1513845215.7,286047001.3,N
1513845235.5,286047004.3,N
1513845255.3,286047001.5,N
1513845275.2,286047001.4,N
1513845295.0,286047002.6,N
1513845295.9,286047002.6,N
1513845315.8,286047002.5,N
1513845335.6,286047001.6,N
1513845355.4,286047002.6,N
1513845405.3,286047001.7,E
1513845415.2,286047002.0,N
1513845435.1,286047003.3,P
1513845436.0,286047003.3,P
1513845455.8,286047005.5,Y
1513845475.7,286047007.0,P
1513845495.5,286047004.7,N
1513845515.3,286047006.8,P
1513845535.2,286047010.7,Y
1513845555.0,286047003.9,P
1513845555.9,286047003.9,P
1513845575.7,286047001.6,N
1513845595.6,286047002.3,N
1513845615.4,286047002.7,N
1513845635.3,286047001.3,N
1513845655.1,286047004.2,Y
1513845675.8,286047000.9,P
1513845695.7,286047001.2,N
1513845715.5,286047001.0,N
1513845735.4,286047002.3,N
1513845755.2,286047001.7,N
1513845775.0,286046998.3,N
1513845775.9,286046998.3,N
1513845795.8,286047000.6,N
1513845815.6,286047000.7,N
1513845835.4,286046998.5,N
1513845855.3,286046998.6,N
1513845875.1,286046998.5,N
1513845895.9,286046998.5,N
1513845915.7,286047001.2,N
1513845935.5,286047001.2,N
1513845955.4,286046998.2,N
1513845975.2,286047001.1,N
1513845995.1,286046998.4,N
1513845996.0,286046998.4,N
1513846015.8,286046998.6,N
1513846035.6,286046998.7,N
1513846055.5,286047000.8,N
1513846075.3,286047000.0,N
1513846095.2,286047000.3,N
1513846115.9,286047000.7,N
1513846135.7,286047001.1,N
1513846155.6,286046998.6,N
1513846175.4,286047000.4,N
1513846195.2,286046998.4,N
1513846215.1,286047000.9,N
1513846216.0,286047000.9,N
1513846235.8,286047000.7,N
1513846255.7,286047000.4,N
1513846275.5,286047001.5,N
1513846295.3,286047002.0,N
1513846315.2,286047003.2,N
1513846335.0,286047003.8,N
1513846335.9,286047003.8,N
1513846355.8,286047004.0,N
1513846375.6,286047003.7,N
1513846395.4,286047003.5,N
1513846415.3,286047003.3,N
1513846435.1,286047004.9,N
1513846455.9,286047007.6,Y
1513846475.7,286047005.4,P
1513846495.5,286047004.9,N
1513846515.4,286047005.3,N
1513846535.2,286047005.9,Y
1513846555.1,286047000.5,P
1513846556.0,286047000.5,N
1513846575.8,286047002.7,N
1513846595.6,286047001.9,N
1513846615.5,286047004.4,Y
1513846635.3,286047000.3,P
1513846655.1,286047002.3,N
1513846675.9,286047002.7,P
1513846695.7,286047001.9,N
1513846715.6,286047002.0,N
1513846735.4,286047002.2,N
1513846755.2,286047001.6,N
1513846775.1,286047001.4,N
1513846806.0,286047002.5,E
